Flag for Greenland

Past Weather in Paamiut, Greenland — Yesterday and Last 2 Weeks

Now
44 °F

Overcast.


Feels Like: 44 °F
Forecast: N/A
Wind: 2 mph from North

Location: Frederikshaab

Current Time: Jul 10, 2020 at 9:33:46 pm

Latest Report: Jul 10, 2020 at 8:00 pm


Visibility: 2 mi

Pressure: 30.00 "Hg

Humidity: 97%

Dew Point: 44 °F

Location of PaamiutLocation

Past Weather in Paamiut — Graph

°F

Paamiut Temperature Yesterday

Maximum temperature yesterday: 58 °F (at 4:00 pm)
Minimum temperature yesterday: 44 °F (at 11:00 pm)
Average temperature yesterday: 49 °F

High & Low Weather Summary for the Past Weeks

 TemperatureHumidityPressure
High58 °F (Jul 9, 4:00 pm)100% (Jul 3, 4:00 am)30.26 "Hg (Jul 3, 4:00 am)
Low34 °F (Jun 27, 11:00 pm)56% (Jul 8, 9:00 pm)29.68 "Hg (Jul 2, 8:00 pm)
Average40 °F92%29.95 "Hg
* Reported Jun 25 7:00 pm — Jul 10 7:00 pm, Paamiut. Weather by CustomWeather, © 2020

Note: Actual official high and low records may vary slightly from our data, if they occured in-between our weather recording intervals... More about our weather records

Paamiut Weather History for the Previous 24 Hours

Scroll right to see more
 ConditionsComfort  
Time TempWeatherWind HumidityBarometerVisibility
7:00 pm
Fri, Jul 10
44 °FFog.No wind97%30.01 "Hg4 mi
6:00 pm44 °FLow clouds.No wind99%30.01 "Hg3 mi
5:00 pm44 °FLow clouds.1 mph99%30.02 "Hg1 mi
4:00 pm43 °FLow clouds.2 mph97%30.02 "Hg0 mi
3:00 pm43 °FFog.1 mph97%30.02 "Hg2 mi
2:00 pm44 °FRain showers. Low clouds.6 mph96%30.02 "Hg2 mi
1:00 pm43 °FFog.6 mph97%30.02 "Hg2 mi
12:00 pm45 °FFog.8 mph95%30.02 "Hg2 mi
11:00 am45 °FLow clouds.9 mph94%30.02 "Hg4 mi
10:00 am45 °FDrizzle. Low clouds.7 mph96%30.01 "Hg2 mi
9:00 am44 °FDrizzle. Low clouds.6 mph96%30.01 "Hg2 mi
8:00 am44 °FDrizzle. Low clouds.3 mph97%30.01 "Hg2 mi
7:00 am43 °FDrizzle. Low clouds.5 mph97%30.01 "Hg2 mi
6:00 am44 °FLight rain. Low clouds.5 mph97%29.99 "Hg2 mi
5:00 am44 °FFog.9 mph95%29.97 "Hg2 mi
4:00 am43 °FFog.14 mph97%29.95 "Hg4 mi
3:00 am42 °FFog.12 mph97%29.94 "Hg5 mi
2:00 am43 °FLow clouds.14 mph95%29.92 "Hg6 mi
1:00 am43 °FLow clouds.12 mph94%29.90 "Hg7 mi
12:00 am44 °FFog.8 mph94%29.88 "Hg6 mi
11:00 pm
Thu, Jul 9
44 °FOvercast.14 mph93%29.86 "Hg6 mi
10:00 pm46 °FRain showers. Overcast.10 mph94%29.84 "Hg3 mi
9:00 pm46 °FLight rain. Overcast.16 mph92%29.83 "Hg3 mi
Weather by CustomWeather, © 2020

See weather overview